DW4885 Weather Reports


time (UTC)temp
F
wind
direction
speed
knots
gust
knots
rain 1hr
in
rain 24hr
in
rain mn
in
humidity
%
barometer
mb
20260505024005 53 187 0.0 1.7 0.00 0.07 0.07 65 1004.4
20260505023504 53 229 0.9 1.7 0.00 0.07 0.07 65 1004.4
20260505021003 54 243 0.9 2.6 0.00 0.07 0.07 65 1004.6
20260505020004 53 235 0.9 1.7 0.00 0.07 0.07 66 1004.6
20260505013504 54 197 0.0 1.7 0.00 0.07 0.07 67 1004.6
20260505013005 54 208 0.0 2.6 0.00 0.07 0.07 66 1004.6
20260505012003 53 142 0.0 0.0 0.00 0.07 0.07 67 1004.7
20260505010004 54 134 0.0 0.0 0.00 0.07 0.07 67 1004.6
20260505004003 54 134 0.0 0.0 0.00 0.07 0.07 67 1004.3
20260505003003 55 135 0.0 0.9 0.00 0.07 0.07 66 1004.2
20260505002503 55 135 0.9 0.9 0.00 0.07 0.07 65 1004.1
20260505001003 56 214 0.0 1.7 0.00 0.07 0.07 63 1004.0
20260504235503 55 259 1.7 4.3 0.00 0.07 0.07 66 1003.8
20260504234003 55 63 0.0 0.9 0.00 0.07 0.07 67 1003.8
20260504231503 57 134 0.0 0.9 0.00 0.07 0.07 66 1003.5
20260504230503 57 135 0.0 0.9 0.00 0.07 0.07 64 1003.3
20260504230003 58 135 0.0 0.0 0.00 0.07 0.07 63 1003.3
20260504225003 58 203 0.0 0.0 0.00 0.07 0.07 61 1003.3
20260504224503 58 203 0.0 0.9 0.00 0.07 0.07 60 1003.1
20260504224003 58 245 0.0 0.0 0.00 0.07 0.07 61 1003.1
20260504223503 59 250 0.0 0.0 0.00 0.07 0.07 60 1003.0
20260504222504 59 250 0.0 0.9 0.00 0.07 0.07 59 1003.1
20260504222004 59 254 0.0 0.9 0.00 0.07 0.07 59 1003.2
20260504215003 60 269 0.0 1.7 0.00 0.07 0.07 58 1003.2
20260504214003 59 271 0.0 1.7 0.00 0.07 0.07 59 1003.3
20260504213503 59 279 0.9 1.7 0.00 0.07 0.07 61 1003.3
20260504212503 58 261 1.7 4.3 0.00 0.07 0.07 61 1003.4
20260504211503 58 246 2.6 4.3 0.00 0.07 0.07 62 1003.3
20260504210503 57 238 0.9 1.7 0.00 0.07 0.07 62 1003.4
20260504210004 57 258 0.9 2.6 0.00 0.07 0.07 62 1003.5
20260504205503 57 266 1.7 5.2 0.00 0.07 0.07 62 1003.5
20260504203004 58 235 3.5 7.0 0.00 0.07 0.07 64 1003.6
20260504202502 58 242 2.6 7.8 0.00 0.07 0.07 66 1003.7
20260504200503 54 264 1.7 2.6 0.00 0.07 0.07 70 1004.0
20260504193503 53 258 1.7 6.1 0.00 0.07 0.07 70 1004.3
20260504192003 53 275 2.6 7.0 0.00 0.07 0.07 71 1004.4
20260504191504 53 279 1.7 8.7 0.00 0.07 0.07 70 1004.5
20260504190504 53 290 1.7 5.2 0.00 0.07 0.07 71 1004.4
20260504185503 54 263 4.3 8.7 0.00 0.07 0.07 70 1004.6
20260504184503 54 266 6.1 10.4 0.00 0.07 0.07 71 1004.6
20260504183003 53 262 7.8 12.2 0.00 0.07 0.07 73 1004.6
20260504182004 52 272 8.7 13.9 0.00 0.07 0.07 73 1004.7
20260504181503 52 251 5.2 14.8 0.00 0.07 0.07 76 1004.8
20260504180503 51 244 7.8 13.0 0.00 0.07 0.07 77 1004.7
20260504174503 49 274 5.2 12.2 0.00 0.07 0.07 80 1004.9
20260504173003 49 263 9.6 14.8 0.00 0.07 0.07 84 1005.0
20260504172003 47 268 6.1 10.4 0.00 0.07 0.07 88 1005.0
20260504171503 46 249 5.2 10.4 0.00 0.07 0.07 88 1005.1
20260504171003 45 252 4.3 6.1 0.00 0.07 0.07 89 1005.1
20260504151004 44 270 6.1 10.4 0.03 0.07 0.07 93 1004.9
20260504150504 44 246 4.3 11.3 0.04 0.07 0.07 92 1004.9
20260504140503 44 247 3.5 7.0 0.03 0.03 0.03 90 1004.3
20260504110504 38 241 0.9 2.6 0.00 0.00 0.00 91 1005.1
20260504100504 38 257 2.6 5.2 0.00 0.00 0.00 80 1005.5
20260504082004 36 216 0.9 4.3 0.00 0.01 0.00 70 1005.9
20260504081504 37 188 0.0 0.9 0.00 0.01 0.00 69 1005.8
20260504081004 37 231 0.9 2.6 0.00 0.01 0.00 68 1005.9
20260504050004 37 247 0.9 1.7 0.00 0.02 0.00 64 1006.1
20260504044505 37 237 0.9 1.7 0.00 0.02 0.00 64 1006.2
20260504044004 37 227 1.7 2.6 0.00 0.02 0.00 64 1006.3
20260504042004 37 237 1.7 4.3 0.00 0.02 0.00 65 1006.3
20260504041504 37 239 0.9 2.6 0.00 0.02 0.00 66 1006.3
20260504040004 36 244 0.9 2.6 0.00 0.02 0.00 67 1006.4
20260504034004 37 270 0.9 0.9 0.00 0.02 0.02 68 1006.3
20260504033504 36 236 0.9 1.7 0.00 0.02 0.02 68 1006.3
20260504031004 37 236 0.9 1.7 0.00 0.02 0.02 68 1006.3
20260504030505 36 253 0.0 0.9 0.00 0.02 0.02 69 1006.2
20260504030004 36 239 0.0 0.9 0.00 0.02 0.02 69 1006.3
20260504024504 37 254 0.0 1.7 0.00 0.02 0.02 68 1006.3